Location: El Águila
(10.4167°N, 66.7167°W)
Time: 04:33:12
(UTC+00:00)

GPS 2-17 Rocket1 - Pass Details

Date: 02 October 2022
Orbit: 568 x 654 km, 20.3° (Epoch: 04 December)

Event Time Altitude Azimuth Distance (km) Brightness Sun altitude
Rises 23:40:06 0° 285° (WNW) 2,764 7.8 -21.3°
Reaches altitude 10° 23:42:46 10° 300° (WNW) 1,858 6.3 -22.0°
Maximum altitude 23:46:15 23° 354° (N) 1,202 4.6 -22.9°
Enters shadow 23:46:43 23° 4° (N) 1,216 4.5 -23.0°
